Weather History for Pellston, MI

Change the Weather History Date:

Thursday, August 14, 2014

  Actual Average Record
Temperature  
Mean Temperature 52 °F -  
Max Temperature 66 °F 76 °F 95 °F (1965)
Min Temperature 39 °F 53 °F 36 °F (1961)
Degree Days  
Heating Degree Days 12    
Growing Degree Days 2 (Base 50)    
Moisture  
Dew Point 43 °F    
Average Humidity 69    
Maximum Humidity 97    
Minimum Humidity 40    
Precipitation  
Precipitation 0.00 in - - ()
Sea Level Pressure  
Sea Level Pressure 30.04 in    
Wind  
Wind Speed 7 mph (NW)    
Max Wind Speed 22 mph    
Max Gust Speed 30 mph    
Visibility 10 miles    
Events      
Averages and records for this station are not official NWS values.
T = Trace of Precipitation, MM = Missing Value Source: NWS Daily Summary

Daily Weather History Graph

Daily Weather History Graph

Search for Another Location

Airport:

Trip Planner

Search our weather history database for the weather conditions in past years. The results will help you decide how hot, cold, wet, or windy it might be!

Date:

Astronomy

Aug. 14, 2014 Rise Set
Actual Time 6:38 AM EDT 8:48 PM EDT
Civil Twilight 6:05 AM EDT 9:20 PM EDT
Nautical Twilight 5:25 AM EDT 10:00 PM EDT
Astronomical Twilight 4:40 AM EDT 10:45 PM EDT
Moon 10:53 PM EDT (8/14) 11:30 AM EDT (8/14)
Length of Visible Light 15h 14m
Length of Day
14h 09m
Waning Gibbous, 79% of the Moon is Illuminated
Aug 14
Waning Gibbous
Aug 17
Last Quarter
Aug 25
New
Sep 2
First Quarter
Sep 8
Full

Hourly Weather History & Observations

Time (EDT) Temp. Windchill Dew Point Humidity Pressure Visibility Wind Dir Wind Speed Gust Speed Precip Events Conditions
12:54 AM 46.0 °F 44.8 °F 45.0 °F 96% 30.05 in 10.0 mi WNW 3.5 mph - N/A   Clear
1:54 AM 45.0 °F - 44.1 °F 97% 30.05 in 10.0 mi Calm Calm - N/A   Clear
2:54 AM 46.0 °F 43.9 °F 45.0 °F 96% 30.04 in 10.0 mi WNW 4.6 mph - N/A   Clear
3:54 AM 44.1 °F - 42.1 °F 93% 30.05 in 10.0 mi Calm Calm - N/A   Clear
4:54 AM 43.0 °F - 41.0 °F 93% 30.05 in 10.0 mi Calm Calm - N/A   Clear
5:54 AM 41.0 °F 39.0 °F 39.9 °F 96% 30.05 in 10.0 mi NW 3.5 mph - N/A   Clear
6:54 AM 39.9 °F - 39.0 °F 97% 30.06 in 10.0 mi Calm Calm - N/A   Clear
7:54 AM 48.9 °F - 46.9 °F 93% 30.06 in 10.0 mi West 3.5 mph - N/A   Clear
8:54 AM 55.9 °F - 48.9 °F 77% 30.06 in 10.0 mi NNW 12.7 mph 18.4 mph N/A   Clear
9:54 AM 57.9 °F - 44.1 °F 60% 30.07 in 10.0 mi NNW 13.8 mph - N/A   Clear
10:54 AM 60.1 °F - 41.0 °F 49% 30.07 in 10.0 mi NNW 20.7 mph 27.6 mph N/A   Clear
11:54 AM 62.1 °F - 42.1 °F 48% 30.06 in 10.0 mi NNW 21.9 mph 29.9 mph N/A   Clear
1:54 PM 63.0 °F - 39.9 °F 43% 30.04 in 10.0 mi NW 15.0 mph - N/A   Clear
2:54 PM 64.9 °F - 39.9 °F 40% 30.02 in 10.0 mi NW 15.0 mph 26.5 mph N/A   Clear
3:54 PM 66.0 °F - 41.0 °F 40% 30.02 in 10.0 mi NW 16.1 mph 24.2 mph N/A   Clear
4:54 PM 66.0 °F - 43.0 °F 43% 30.02 in 10.0 mi NW 15.0 mph 27.6 mph N/A   Clear
5:54 PM 66.0 °F - 43.0 °F 43% 30.01 in 10.0 mi NW 17.3 mph 24.2 mph N/A   Clear
6:54 PM 64.0 °F - 42.1 °F 45% 30.02 in 10.0 mi WNW 15.0 mph - N/A   Clear
7:54 PM 62.1 °F - 42.1 °F 48% 30.01 in 10.0 mi NW 15.0 mph - N/A   Clear
8:54 PM 57.0 °F - 44.1 °F 62% 30.01 in 10.0 mi NW 6.9 mph - N/A   Clear
9:54 PM 52.0 °F - 43.0 °F 71% 30.02 in 10.0 mi WNW 8.1 mph - N/A   Clear
10:54 PM 46.9 °F - 43.0 °F 86% 30.01 in 10.0 mi West 4.6 mph - N/A   Clear